Skip Page Navigation
NASA JPL Caltech
NASA Logo - Jet Propulsion Laboratory + View the NASA Portal
+ Center for Near-Earth Object Studies
JPL Home Earth Solar System Stars & Galaxies Technology
JPL Solar System Dynamics
BODIES ORBITS EPHEMERIDES TOOLS PHYSICAL DATA DISCOVERY FAQ SITE MAP
IMPORTANT: The SSD Announcement email list is now available. Major changes are coming in the near future, including possible hostname and/or URL changes. To be notified of such changes, subscribe to this email list.

Please visit this page for more details.


JPL Small-Body Database Browser
Search: [ help ]  
15009 (1998 QF27)
Classification: Inner Main-belt Asteroid          SPK-ID: 2015009
Ephemeris | Orbit Diagram | Orbital Elements | Mission Design | Physical Parameters | Discovery Circumstances ]

[ show orbit diagram ]
Orbital Elements at Epoch 2459000.5 (2020-May-31.0) TDB
Reference: JPL 11 (heliocentric ecliptic J2000)
 Element Value Uncertainty (1-sigma)   Units 
e .1144513506491058 3.9909e-08  
a 1.950118427873515 6.8942e-09 au
q 1.726924739877681 7.8296e-08 au
i 22.88293474149424 6.8671e-06 deg
node 174.947756318184 1.0468e-05 deg
peri 247.4702421469586 3.1309e-05 deg
M 285.4270003114184 3.2095e-05 deg
tp 2459206.548291748194
(2020-Dec-23.04829175)
8.9215e-05 TDB
period 994.694934347769
2.72
5.2747e-06
1.444e-08
d
yr
n .3619200094107802 1.9192e-09 deg/d
Q 2.17331211586935 7.6832e-09 au
  Orbit Determination Parameters
   # obs. used (total)      688  
   data-arc span      14475 days (39.63 yr)  
   first obs. used      1979-09-20  
   last obs. used      2019-05-08  
   planetary ephem.      DE431  
   SB-pert. ephem.      SB431-N16  
   condition code      0  
   norm. resid. RMS      .60414  
   source      ORB  
   producer      Otto Matic  
   solution date      2019-May-30 02:17:52  

Additional Information
 Earth MOID = .807002 au 
 Jupiter MOID = 3.11208 au 
 T_jup = 3.789 
[ show covariance matrix ]

Ephemeris | Orbit Diagram | Orbital Elements | Mission Design | Physical Parameters | Discovery Circumstances ]

Physical Parameter Table
Parameter Symbol Value Units Sigma Reference Notes
absolute magnitude H 16.1   n/a MPO378718  

15009 (1998 QF27)          Discovered 1998-Aug-24 by LINEAR at Socorro
Reference: 20000523/Numbers.arcLast Updated: 2004-04-19

Alternate Designations
 1998 QF27 = 1979 SC14 
Ephemeris | Orbit Diagram | Orbital Elements | Mission Design | Physical Parameters | Discovery Circumstances ]
ABOUT SSD CREDITS/AWARDS PRIVACY/COPYRIGHT GLOSSARY LINKS
FirstGov 2020-Apr-08 22:49 UT
(server date/time)  
NASA Home Page
Site Manager:   Ryan S. Park
Webmaster  Alan B. Chamberlin